Location: Krakow
(50.0830°N, 19.9170°E)
Time: 18:37:37
(UTC+01:00)

SR - Pass Details

Date: 13 February 2023
Orbit: 582 x 867 km, 66.7° (Epoch: 20 March)

Event Time Altitude Azimuth Distance (km) Brightness Sun altitude
Rises 17:31:41 0° 324° (NW) 2,909 ? -6.6°
Reaches altitude 10° 17:35:17 10° 353° (N) 1,956 ? -7.1°
Maximum altitude 17:37:14 13° 20° (NNE) 1,765 ? -7.4°
Drops below altitude 10° 17:39:10 10° 47° (NE) 1,922 ? -7.7°
Enters shadow 17:39:57 - 56° (NE) 2,071 ? -7.8°
Sets 17:42:37 0° 77° (ENE) 2,808 - -8.3°
